Change the Weather History Date:

Thursday, November 20, 2014

  Actual Average (KLOT) Record (KLOT)
Temperature  
Mean Temperature 21 °F 39 °F  
Max Temperature 28 °F 46 °F 65 °F (2003)
Min Temperature 12 °F 31 °F 11 °F (2014)
Degree Days  
Heating Degree Days 44 27  
Month to date heating degree days 438  
Since 1 July heating degree days 925  
Cooling Degree Days 0 0  
Month to date cooling degree days 0  
Year to date cooling degree days 862  
Moisture  
Dew Point 8 °F    
Average Humidity 59    
Maximum Humidity 78    
Minimum Humidity 34    
Precipitation  
Precipitation 0.00 in 0.11 in 0.31 in (2013)
Month to date precipitation 2.25  
Year to date precipitation 36.61  
Snow  
Snow 0.00 in 0.10 in 2.80 in (1996)
Month to date snowfall 0.3  
Since 1 July snowfall 0.3  
Since 1 September snowfall 0.3  
Snow Depth -    
Sea Level Pressure  
Sea Level Pressure 30.13 in    
Wind  
Wind Speed 9 mph (West)    
Max Wind Speed 20 mph    
Max Gust Speed 30 mph    
Visibility 10 miles    
Events      
T = Trace of Precipitation, MM = Missing Value Source: NWS Daily Summary

Daily Weather History Graph

Daily Weather History Graph

Search for Another Location

Airport or City:

Trip Planner

Search our weather history database for the weather conditions in past years. The results will help you decide how hot, cold, wet, or windy it might be!

Date:

Astronomy

Nov. 20, 2014 Rise Set
Actual Time 6:47 AM CST 4:28 PM CST
Civil Twilight 6:17 AM CST 4:59 PM CST
Nautical Twilight 5:43 AM CST 5:32 PM CST
Astronomical Twilight 5:10 AM CST 6:05 PM CST
Moon 4:40 AM CST (11/20) 3:34 PM CST (11/20)
Length of Visible Light 10h 41m
Length of Day
9h 41m
Waning Crescent, 4% of the Moon is Illuminated
Nov 20
Waning Crescent
Nov 22
New
Nov 29
First Quarter
Dec 6
Full
Dec 14
Last Quarter

Hourly Weather History & Observations

Time (CST) Temp. Windchill Dew Point Humidity Pressure Visibility Wind Dir Wind Speed Gust Speed Precip Events Conditions
12:15 AM 19.9 °F 10.1 °F 12.2 °F 72% 30.05 in 10.0 mi WSW 8.1 mph - N/A   Clear
12:35 AM 19.2 °F 10.2 °F 12.2 °F 74% 30.04 in 10.0 mi WSW 6.9 mph - N/A   Clear
12:55 AM 18.9 °F 8.8 °F 12.2 °F 75% 30.04 in 10.0 mi West 8.1 mph - N/A   Clear
1:15 AM 19.0 °F 11.1 °F 12.2 °F 75% 30.04 in 10.0 mi WSW 5.8 mph - N/A   Clear
1:35 AM 18.5 °F 8.4 °F 12.2 °F 76% 30.05 in 10.0 mi West 8.1 mph - N/A   Clear
1:55 AM 18.5 °F 9.3 °F 12.2 °F 76% 30.04 in 10.0 mi West 6.9 mph - N/A   Clear
2:15 AM 18.5 °F 10.4 °F 12.2 °F 76% 30.04 in 10.0 mi West 5.8 mph - N/A   Clear
2:35 AM 18.1 °F 7.9 °F 11.8 °F 76% 30.04 in 10.0 mi West 8.1 mph - N/A   Clear
2:55 AM 18.1 °F 8.9 °F 11.8 °F 76% 30.04 in 10.0 mi West 6.9 mph - N/A   Clear
3:15 AM 18.1 °F 8.9 °F 11.7 °F 76% 30.04 in 10.0 mi SW 6.9 mph - N/A   Clear
3:35 AM 17.4 °F 7.1 °F 11.3 °F 77% 30.04 in 10.0 mi WSW 8.1 mph - N/A   Clear
3:55 AM 17.2 °F 7.8 °F 11.3 °F 78% 30.04 in 10.0 mi WSW 6.9 mph - N/A   Clear
4:15 AM 18.0 °F 8.7 °F 11.7 °F 76% 30.04 in 10.0 mi West 6.9 mph - N/A   Clear
4:35 AM 18.5 °F 6.8 °F 11.7 °F 75% 30.04 in 10.0 mi West 10.4 mph 16.1 mph N/A   Clear
4:55 AM 18.1 °F 7.9 °F 11.7 °F 76% 30.04 in 10.0 mi West 8.1 mph 17.3 mph N/A   Clear
5:15 AM 17.6 °F 7.3 °F 11.3 °F 76% 30.05 in 10.0 mi West 8.1 mph - N/A   Clear
5:35 AM 17.2 °F 6.8 °F 11.1 °F 77% 30.05 in 10.0 mi West 8.1 mph - N/A   Clear
5:55 AM 16.7 °F 8.3 °F 10.9 °F 78% 30.06 in 10.0 mi West 5.8 mph - N/A   Clear
6:15 AM 16.7 °F 7.2 °F 10.8 °F 77% 30.06 in 10.0 mi West 6.9 mph - N/A   Clear
6:35 AM 16.7 °F 5.3 °F 10.4 °F 76% 30.06 in 10.0 mi West 9.2 mph - N/A   Clear
6:55 AM 16.3 °F 6.7 °F 10.4 °F 77% 30.07 in 10.0 mi West 6.9 mph - N/A   Clear
7:15 AM 16.5 °F 6.9 °F 10.4 °F 77% 30.08 in 10.0 mi West 6.9 mph - N/A   Clear
7:35 AM 16.7 °F 7.2 °F 10.8 °F 77% 30.08 in 10.0 mi WSW 6.9 mph - N/A   Clear
7:55 AM 17.4 °F 8.0 °F 11.1 °F 76% 30.09 in 10.0 mi West 6.9 mph - N/A   Clear
8:15 AM 18.5 °F 9.3 °F 11.5 °F 74% 30.09 in 10.0 mi West 6.9 mph 16.1 mph N/A   Clear
8:35 AM 19.8 °F 9.1 °F 11.8 °F 71% 30.10 in 10.0 mi West 9.2 mph 16.1 mph N/A   Clear
8:55 AM 20.8 °F 9.0 °F 12.2 °F 69% 30.10 in 10.0 mi West 11.5 mph 18.4 mph N/A   Clear
9:15 AM 21.7 °F 9.0 °F 12.0 °F 66% 30.11 in 10.0 mi West 13.8 mph 18.4 mph N/A   Clear
9:35 AM 23.4 °F 13.5 °F 12.6 °F 63% 30.11 in 10.0 mi West 9.2 mph 16.1 mph N/A   Clear
9:55 AM 24.8 °F 13.4 °F 12.4 °F 59% 30.11 in 10.0 mi West 12.7 mph 19.6 mph N/A   Clear
10:15 AM 25.9 °F 15.3 °F 11.5 °F 55% 30.11 in 10.0 mi West 11.5 mph 20.7 mph N/A   Clear
10:35 AM 27.0 °F 14.3 °F 10.8 °F 51% 30.11 in 10.0 mi WNW 17.3 mph 23.0 mph N/A   Scattered Clouds
10:55 AM 27.1 °F 14.9 °F 8.8 °F 46% 30.11 in 10.0 mi West 16.1 mph 23.0 mph N/A   Scattered Clouds
11:15 AM 27.5 °F 14.6 °F 8.1 °F 44% 30.11 in 10.0 mi West 18.4 mph 24.2 mph N/A   Clear
11:35 AM 28.0 °F 16.5 °F 7.3 °F 42% 30.11 in 10.0 mi WNW 15.0 mph 25.3 mph N/A   Scattered Clouds
11:55 AM 27.9 °F 16.3 °F 6.4 °F 40% 30.10 in 10.0 mi West 15.0 mph 26.5 mph N/A   Scattered Clouds
12:15 PM 28.4 °F 16.2 °F 6.1 °F 39% 30.10 in 10.0 mi West 17.3 mph 26.5 mph N/A   Scattered Clouds
12:35 PM 28.2 °F 15.2 °F 4.6 °F 37% 30.10 in 10.0 mi WNW 19.6 mph 29.9 mph N/A   Clear
12:55 PM 28.6 °F 17.2 °F 4.6 °F 36% 30.10 in 10.0 mi West 15.0 mph 25.3 mph N/A   Clear
1:15 PM 28.2 °F 17.2 °F 3.7 °F 35% 30.10 in 10.0 mi West 13.8 mph 25.3 mph N/A   Clear
1:35 PM 28.6 °F 16.8 °F 3.9 °F 35% 30.10 in 10.0 mi WNW 16.1 mph 24.2 mph N/A   Clear
1:55 PM 28.4 °F 18.0 °F 3.9 °F 35% 30.10 in 10.0 mi WNW 12.7 mph 26.5 mph N/A   Clear
2:15 PM 28.4 °F 16.6 °F 4.5 °F 36% 30.11 in 10.0 mi West 16.1 mph 23.0 mph N/A   Clear
2:35 PM 28.4 °F 15.4 °F 3.6 °F 35% 30.11 in 10.0 mi West 19.6 mph 25.3 mph N/A   Clear
2:55 PM 28.2 °F 20.2 °F 3.9 °F 36% 30.11 in 10.0 mi West 8.1 mph 21.9 mph N/A   Clear
3:15 PM 27.9 °F 16.3 °F 2.7 °F 34% 30.12 in 10.0 mi WNW 15.0 mph 21.9 mph N/A   Clear
3:35 PM 27.3 °F 18.4 °F 2.8 °F 35% 30.13 in 10.0 mi West 9.2 mph 20.7 mph N/A   Clear
3:55 PM 26.4 °F 15.5 °F 2.8 °F 36% 30.14 in 10.0 mi West 12.7 mph 19.6 mph N/A   Clear
4:15 PM 25.7 °F 15.1 °F 2.8 °F 38% 30.14 in 10.0 mi West 11.5 mph 23.0 mph N/A   Clear
4:35 PM 24.8 °F 14.6 °F 2.8 °F 39% 30.15 in 10.0 mi WNW 10.4 mph 20.7 mph N/A   Clear
4:55 PM 24.3 °F 13.9 °F 3.2 °F 40% 30.17 in 10.0 mi WNW 10.4 mph - N/A   Clear
5:15 PM 23.5 °F 15.4 °F 3.9 °F 43% 30.17 in 10.0 mi WNW 6.9 mph - N/A   Clear
5:35 PM 22.5 °F 14.1 °F 4.1 °F 45% 30.19 in 10.0 mi WNW 6.9 mph - N/A   Clear
5:55 PM 22.5 °F 12.4 °F 3.9 °F 45% 30.19 in 10.0 mi WNW 9.2 mph - N/A   Clear
6:15 PM 21.9 °F 13.4 °F 3.9 °F 46% 30.20 in 10.0 mi WNW 6.9 mph - N/A   Clear
6:35 PM 21.2 °F 13.6 °F 4.1 °F 48% 30.21 in 10.0 mi WNW 5.8 mph - N/A   Clear
6:55 PM 20.3 °F 11.5 °F 4.1 °F 50% 30.21 in 10.0 mi WNW 6.9 mph - N/A   Clear
7:15 PM 19.9 °F 10.1 °F 4.6 °F 52% 30.22 in 10.0 mi WNW 8.1 mph - N/A   Clear
7:35 PM 19.4 °F 9.5 °F 4.6 °F 53% 30.23 in 10.0 mi WNW 8.1 mph - N/A   Clear
7:55 PM 18.5 °F 9.3 °F 4.8 °F 55% 30.24 in 10.0 mi WNW 6.9 mph - N/A   Clear
8:15 PM 18.5 °F 11.7 °F 5.0 °F 56% 30.24 in 10.0 mi WNW 4.6 mph - N/A   Clear
8:35 PM 18.1 °F 11.3 °F 5.0 °F 57% 30.25 in 10.0 mi West 4.6 mph - N/A   Clear
8:55 PM 17.1 °F 8.7 °F 5.0 °F 59% 30.27 in 10.0 mi West 5.8 mph - N/A   Clear
9:15 PM 16.0 °F 10.4 °F 5.2 °F 62% 30.27 in 10.0 mi WNW 3.5 mph - N/A   Clear
9:35 PM 15.8 °F 7.2 °F 5.0 °F 62% 30.27 in 10.0 mi WNW 5.8 mph - N/A   Clear
9:55 PM 15.6 °F 10.0 °F 4.8 °F 62% 30.29 in 10.0 mi WNW 3.5 mph - N/A   Clear
10:15 PM 15.6 °F 7.0 °F 4.6 °F 62% 30.30 in 10.0 mi WNW 5.8 mph - N/A   Clear
10:35 PM 14.9 °F 9.2 °F 4.3 °F 63% 30.31 in 10.0 mi WNW 3.5 mph - N/A   Clear
10:55 PM 14.9 °F 9.2 °F 4.1 °F 62% 30.31 in 10.0 mi WNW 3.5 mph - N/A   Clear
11:15 PM 14.7 °F - 4.1 °F 63% 30.32 in 10.0 mi Calm Calm - N/A   Clear
11:35 PM 14.0 °F - 3.9 °F 64% 30.33 in 10.0 mi Calm Calm - N/A   Clear
11:55 PM 12.4 °F - 3.9 °F 69% 30.35 in 10.0 mi Calm Calm - N/A   Clear